Location: *
(44.3683°N, 6.6958°E)
Time: 09:05:29
(UTC+00:00)

STARLINK-70 - Pass Details

Date: 14 October 2019
Orbit: 549 x 551 km, 53.0° (Epoch: 19 November)

Event Time Altitude Azimuth Distance (km) Brightness Sun altitude
Rises 17:45:47 0° 240° (WSW) 2,707 8.3 -10.5°
Reaches altitude 10° 17:48:01 10° 242° (WSW) 1,817 7.4 -10.9°
Maximum altitude 17:52:08 74° 328° (NNW) 575 3.8 -11.6°
Enters shadow 17:55:51 13° 53° (NE) 1,653 5.6 -12.3°
